EHI
18 18 22 23 18 13 11 9 8 7 5 3 2 1 0 2 5 8 7 7 6 3 1 0 0 0 0 0 1 2 1 0 2 4 3 1 1 1 1 1 0 0 1
18 18 21 23 19 14 12 10 9 8 7 5 3 2 1 1 4 6 7 6 5 3 1 0 0 0 0 0 1 1 1 1 2 3 3 1 0 1 2 2 1 0 1
16 16 19 22 20 15 13 12 10 9 8 6 5 3 1 1 3 4 4 4 5 3 1 0 0 0 0 0 0 0 1 2 3 3 2 1 0 1 3 3 1 0 1
14 14 18 22 21 16 13 12 11 10 8 7 6 3 1 1 2 2 1 2 3 2 0 0 0 0 0 0 0 0 1 3 3 1 1 0 0 1 4 3 1 0 0
12 13 18 23 24 19 14 12 11 9 8 7 5 3 1 1 1 1 1 0 1 0 0 0 0 0 0 0 0 0 2 3 3 1 0 0 0 1 3 3 1 0 0
15 15 18 23 25 21 16 12 9 8 7 6 4 3 1 1 1 1 1 1 1 0 0 0 0 0 0 0 0 0 1 2 2 1 0 1 1 2 3 1 0 0 0
20 20 21 25 25 21 17 12 9 7 6 6 4 3 3 2 2 2 2 2 2 1 1 0 0 0 0 0 0 0 0 1 2 1 1 2 4 5 4 2 1 1 0
23 23 24 26 26 23 19 13 7 5 5 5 5 4 4 3 3 3 3 3 3 2 1 0 0 0 0 0 0 0 1 2 1 1 1 3 6 8 6 3 3 2 2
21 21 23 23 23 22 20 13 6 4 4 5 6 6 5 4 3 3 3 2 2 3 1 0 0 0 0 0 1 1 3 4 3 1 1 3 8 11 9 6 5 4 3
18 17 17 17 16 16 14 11 8 6 4 4 5 6 5 3 3 3 2 2 3 3 3 1 1 1 1 2 3 4 5 5 3 1 1 4 9 12 11 9 7 5 4
15 14 12 13 12 10 9 9 9 8 5 4 5 5 5 5 4 3 3 4 4 4 4 4 4 3 4 5 5 5 4 3 2 2 3 6 10 11 11 10 8 6 5
13 12 13 14 11 7 6 8 7 6 6 6 6 7 7 6 5 4 5 6 6 5 5 6 6 6 6 6 6 5 4 3 3 3 5 9 12 12 11 10 9 8 7
13 12 13 16 14 8 7 8 6 5 7 7 8 9 7 6 5 5 6 8 8 7 7 7 7 6 6 6 5 4 3 3 4 5 8 12 15 16 14 11 10 9 8
15 13 14 17 17 13 11 10 8 7 7 9 10 9 6 5 6 5 7 9 9 8 8 8 7 6 6 5 4 3 3 3 5 7 10 14 18 19 17 14 12 10 8
18 15 14 17 19 18 15 12 10 9 9 11 12 9 6 7 7 7 8 10 11 11 10 9 9 8 6 5 4 3 3 4 5 7 10 14 17 19 17 15 14 12 9
20 18 16 17 20 20 18 15 12 12 14 13 13 12 9 8 9 9 10 10 12 13 13 10 9 7 6 5 4 3 4 4 5 7 9 12 16 17 15 14 14 12 9
23 21 19 19 22 23 22 19 15 14 14 14 15 16 15 13 13 12 12 12 14 16 15 12 9 6 5 4 4 4 5 6 7 8 9 11 14 14 12 13 12 10 8
24 23 21 21 24 25 25 23 19 14 14 16 18 20 21 18 17 17 16 18 20 19 17 14 9 5 4 5 6 6 8 9 10 11 10 10 12 13 12 13 13 11 9
24 24 23 23 26 27 27 26 23 18 16 17 19 22 24 22 20 21 22 24 25 23 18 13 10 9 7 7 7 8 10 14 15 13 10 9 11 13 13 14 15 13 11
25 27 28 28 29 30 30 29 27 23 20 18 18 22 25 24 23 22 24 26 27 24 19 15 15 15 13 11 9 8 11 16 18 16 11 9 11 14 15 15 15 13 11
27 32 34 33 33 33 31 31 31 28 23 20 20 25 29 28 26 23 23 26 26 23 20 19 19 19 16 12 9 8 10 14 17 16 14 12 12 13 14 14 15 15 14
30 35 38 37 37 35 32 31 33 33 28 23 25 32 35 34 29 24 24 28 28 25 23 23 22 20 16 11 10 9 8 11 14 15 15 15 13 13 12 12 14 17 18
32 35 39 40 40 38 35 33 34 35 30 25 28 35 37 34 29 26 27 30 32 30 28 27 24 21 17 12 10 8 8 11 13 14 15 14 13 13 11 10 12 16 19
33 35 39 40 40 40 37 34 33 31 27 24 26 32 34 30 27 26 28 32 34 32 30 28 24 22 18 13 10 9 9 12 14 14 13 12 12 13 11 10 12 15 18
30 32 37 42 42 41 37 34 30 25 23 23 24 28 31 29 26 27 29 32 33 31 28 26 25 22 17 13 11 11 11 12 13 12 10 10 11 12 12 12 13 14 15
26 28 35 43 45 42 38 34 30 25 22 22 23 26 30 30 27 28 31 33 33 30 27 27 26 23 18 14 13 13 13 13 12 11 9 8 9 12 13 13 14 14 14
Wind_Speed
10 11 12 11 9 8 7 7 7 7 6 6 7 7 8 8 8 8 8 9 9 9 9 9 9 8 7 7 7 7 7 7 6 6 7 7 7 6 5 4 3 4 6
12 12 12 11 9 8 7 7 7 7 6 6 7 7 7 8 8 8 8 8 9 9 9 9 9 8 7 6 7 6 6 6 6 6 6 6 6 5 5 3 3 4 5
13 12 11 10 10 9 8 7 7 7 6 6 6 6 7 7 7 8 8 9 9 9 9 8 8 8 7 6 6 6 6 5 5 5 5 4 5 6 5 5 6 6 4
13 12 11 12 10 9 8 7 7 7 7 7 6 6 6 7 7 7 8 9 9 8 8 8 8 7 7 6 6 5 5 5 5 5 4 3 4 7 6 5 5 5 4
13 13 13 13 11 9 8 8 7 6 6 7 6 6 6 7 7 7 8 9 9 8 8 8 7 7 6 5 5 5 4 5 5 5 3 2 3 8 7 6 4 4 3
13 15 14 13 11 10 9 8 7 7 6 6 6 6 6 7 7 7 8 8 8 8 8 7 7 6 5 4 4 4 4 4 5 4 2 2 4 7 7 5 4 4 4
13 14 14 13 12 10 9 8 7 6 6 6 5 5 6 8 8 7 7 8 8 8 7 7 7 6 5 4 4 4 4 4 4 1 2 3 5 7 6 5 4 4 4
12 14 13 13 12 10 9 9 7 6 6 6 6 6 8 9 8 8 7 7 7 7 7 6 6 6 5 4 4 3 3 3 2 2 2 4 7 8 7 6 5 4 4
11 12 11 11 10 10 9 8 7 6 6 6 6 7 8 7 7 7 7 7 7 7 7 6 6 6 5 5 4 4 4 3 3 1 3 4 7 7 6 6 5 5 5
9 10 9 10 9 8 8 8 7 7 7 7 6 6 7 7 7 7 7 7 7 7 7 7 7 6 6 6 5 5 5 4 3 2 2 4 8 7 6 6 5 5 5
8 8 7 8 7 7 7 8 7 7 7 7 5 6 5 4 5 5 6 8 7 7 7 7 7 7 6 7 8 7 5 3 3 2 2 6 8 7 6 6 5 5 5
7 7 6 7 5 5 5 5 4 4 6 5 4 4 3 2 2 4 7 8 8 8 7 8 8 8 6 4 7 8 4 5 3 2 4 8 8 8 7 6 6 6 5
7 6 6 6 5 4 4 3 2 2 4 4 4 3 2 2 2 3 3 5 5 6 5 6 6 4 4 3 3 4 4 3 2 2 4 8 9 8 8 7 7 7 6
7 7 6 6 5 3 3 2 2 3 3 3 3 2 2 1 1 1 2 3 3 3 3 3 3 4 3 3 3 3 3 2 1 2 4 8 8 8 8 7 7 7 7
6 7 7 6 5 3 2 1 3 2 3 4 3 2 2 2 1 1 1 1 2 2 3 3 3 3 3 4 3 3 3 2 2 3 3 8 9 8 8 8 7 7 7
7 7 7 7 6 4 2 1 1 2 2 2 3 3 2 2 2 1 1 1 1 2 2 2 3 3 2 2 3 3 2 2 2 2 3 6 9 8 7 7 7 8 8
7 7 7 7 7 4 2 2 2 2 3 2 3 3 2 2 2 2 2 2 2 2 2 2 2 2 2 2 3 3 3 3 3 3 3 4 5 8 9 9 8 8 8
7 7 5 5 7 5 3 1 1 1 2 2 2 2 2 2 2 2 2 2 2 1 1 2 2 2 2 2 2 3 2 3 4 4 3 3 3 4 8 10 9 8 8
7 7 5 4 5 5 4 2 1 0 1 1 2 2 3 3 2 2 2 1 2 2 2 2 2 2 2 2 2 3 3 3 2 4 3 4 4 4 4 7 10 9 9
7 6 5 5 4 4 4 2 2 1 1 1 1 2 3 2 3 2 2 2 2 1 1 1 1 2 2 2 3 2 2 2 3 3 4 4 4 5 5 5 5 6 8
7 7 5 4 3 2 2 2 2 2 1 1 2 2 3 2 2 2 1 1 1 1 2 2 1 2 2 1 1 1 2 3 3 2 2 2 2 4 4 4 4 3 4
7 7 6 5 4 2 1 1 1 1 2 2 2 2 3 2 2 2 1 1 1 1 0 1 1 1 1 1 1 1 1 1 1 3 2 2 2 1 2 4 4 4 3
8 7 6 5 4 3 2 2 1 1 1 1 2 2 2 2 2 1 1 1 1 1 1 1 1 2 2 1 1 1 1 1 1 1 2 2 2 1 1 2 3 3 4
8 8 7 6 4 3 2 2 2 2 1 1 1 2 2 2 2 2 1 1 1 1 1 1 1 1 2 2 1 1 1 1 1 1 1 0 1 1 1 2 2 3 4
9 8 8 6 5 4 3 2 1 1 1 1 1 1 2 2 2 2 2 1 1 1 0 0 0 0 1 2 1 1 1 1 2 1 1 1 0 1 2 2 1 2 3
9 9 9 7 6 5 4 3 2 1 1 0 1 1 1 1 1 1 1 1 1 1 1 1 1 1 1 2 2 1 1 1 1 1 1 1 1 1 2 1 1 1 2
Wind_Direction
112 118 124 122 121 117 115 111 113 116 118 119 123 127 129 128 127 127 130 131 133 134 136 137 134 132 131 128 125 122 123 121 113 111 108 110 112 116 120 125 137 119 119
113 120 124 120 118 117 115 113 114 116 119 125 125 130 133 132 131 133 135 136 138 141 142 142 140 138 136 134 133 130 129 126 129 131 130 125 123 124 121 117 100 109 118
113 123 126 122 121 117 116 118 119 119 119 122 124 131 135 136 137 138 138 138 139 139 139 138 139 141 145 141 141 139 139 142 149 159 169 159 141 138 130 115 113 117 123
119 128 123 124 122 118 118 120 121 120 117 117 121 129 136 141 140 139 139 141 140 139 141 140 141 143 145 144 150 151 154 164 173 184 196 171 148 138 141 135 130 133 138
118 121 122 125 123 121 122 122 120 118 115 116 118 128 139 143 142 139 138 140 141 141 142 142 141 141 143 145 155 163 175 189 201 217 197 143 120 139 146 145 143 145 148
119 119 124 126 123 123 124 125 122 118 116 116 117 126 138 141 139 136 136 139 143 143 143 144 143 141 143 150 162 171 193 208 225 219 169 132 121 140 146 153 150 152 152
118 122 128 128 126 128 129 127 126 124 121 118 122 129 139 141 140 138 139 140 139 143 145 145 145 144 150 161 169 182 206 220 236 217 133 119 123 140 149 154 156 160 160
119 122 130 132 132 133 132 133 132 131 125 123 122 118 130 135 139 142 143 140 139 142 145 149 154 151 157 169 179 193 218 247 226 170 133 120 135 146 155 160 169 172 176
116 125 136 141 141 139 135 134 136 135 135 133 131 126 128 137 144 148 150 148 146 146 150 155 162 164 175 186 201 218 227 243 259 212 165 130 144 151 162 168 172 180 186
114 125 136 143 144 145 145 144 142 140 142 139 141 142 145 152 156 156 160 156 154 153 155 165 171 181 193 200 214 228 234 255 228 207 133 137 151 162 171 173 180 189 198
113 123 133 134 141 146 149 145 154 158 156 154 157 162 166 174 166 162 160 153 158 160 165 173 184 194 203 211 220 227 230 233 212 172 140 156 166 172 180 184 192 199 205
123 124 131 127 133 137 133 135 158 157 155 162 149 162 175 172 148 144 149 162 167 173 179 189 198 202 213 217 217 218 227 220 216 178 158 167 173 177 184 191 201 207 213
122 121 122 124 122 125 116 132 138 125 137 147 141 159 164 164 154 150 156 164 172 181 189 189 198 207 213 214 208 201 215 221 195 184 164 174 177 182 189 197 204 209 217
125 122 119 116 119 118 119 130 136 133 139 136 143 171 158 158 159 158 154 154 167 181 182 185 193 197 215 223 219 209 214 208 187 158 172 181 182 186 193 201 207 213 216
117 121 117 116 115 114 107 137 135 129 132 136 145 168 168 161 156 127 130 155 175 169 181 186 195 198 210 223 223 215 218 214 201 192 163 187 192 192 198 206 212 214 214
128 123 124 123 115 115 127 138 117 130 131 145 144 154 177 157 134 139 179 184 180 172 180 187 190 200 210 212 210 219 216 221 235 192 173 187 195 195 203 212 215 216 214
129 126 126 129 124 129 139 165 134 141 143 139 132 146 169 161 165 166 184 185 208 187 174 182 203 207 216 212 212 216 208 212 216 219 199 186 190 199 207 213 214 212 208
124 122 125 132 132 139 147 154 137 162 136 131 136 147 160 170 189 178 180 189 200 182 177 198 198 203 219 221 217 226 213 205 208 211 203 200 193 199 208 210 207 206 207
121 125 125 116 131 145 148 154 172 135 103 110 131 145 163 185 192 198 203 181 182 181 194 212 177 185 217 236 235 226 217 208 205 219 198 203 200 196 189 199 202 205 209
122 123 129 124 128 140 147 155 169 164 147 142 135 146 156 183 194 212 206 193 201 171 179 209 189 205 216 238 254 237 226 199 201 205 216 213 203 193 193 196 190 207 208
135 133 132 137 139 146 155 167 173 171 180 167 163 164 162 187 201 212 232 175 196 175 198 191 215 216 226 243 265 274 253 221 203 198 209 217 210 200 186 179 180 191 191
145 144 142 145 140 150 150 157 177 162 179 178 162 147 157 178 212 199 203 204 172 182 228 240 253 257 255 209 227 265 276 265 229 204 192 189 207 216 188 181 183 177 181
153 149 147 144 142 150 166 166 163 149 195 174 150 149 162 178 197 246 175 224 203 182 195 219 244 248 258 247 208 229 258 279 297 253 185 164 165 193 216 174 167 168 170
158 152 142 145 145 155 178 179 190 183 179 195 171 144 156 180 191 188 178 211 240 235 220 220 200 275 261 266 262 244 237 251 284 309 291 155 162 163 205 206 175 170 169
163 158 152 147 152 158 174 169 204 210 193 188 173 150 170 174 184 182 170 191 218 226 266 282 22 292 266 273 280 278 270 255 252 238 284 307 304 179 196 194 169 175 171
165 163 154 153 158 164 172 169 190 205 217 209 202 178 200 188 174 169 161 179 208 229 254 225 263 241 265 285 291 298 273 263 270 251 250 279 271 230 208 171 169 181 151